Temperature
18 18 17 17 16 15 14 13 12 12 12 11 11 11 11 10 10 10 10 9 9 9 10 10 10 10 10 11 11 12 12 12 11 11 11 11 11 11 12 12 13 13 13
19 19 18 17 17 16 14 13 13 12 12 11 11 11 10 10 10 10 9 9 9 9 9 9 10 10 10 11 11 11 11 11 11 11 11 11 10 11 11 11 11 11 12
19 19 18 17 17 16 15 14 13 12 12 11 11 11 11 10 10 10 9 9 9 9 9 9 10 10 11 11 11 12 12 11 11 10 10 10 10 10 10 10 10 11 11
19 19 18 17 17 16 15 14 13 13 12 12 11 11 11 10 10 10 9 9 10 10 10 10 10 10 11 12 12 12 12 11 10 10 10 10 10 9 10 10 10 10 10
19 19 18 17 17 16 15 14 14 13 12 12 11 11 11 10 10 10 10 10 10 10 10 10 10 11 11 12 12 12 12 11 10 10 10 10 10 9 9 9 10 10 10
19 18 18 17 17 16 15 14 14 13 12 12 11 11 10 10 10 10 10 11 11 11 11 11 11 11 12 12 12 12 11 11 10 10 10 10 10 9 9 9 9 10 10
18 18 18 17 17 16 15 14 13 13 12 12 11 11 10 10 10 11 11 11 11 11 11 11 11 11 11 12 12 11 11 11 11 11 11 11 11 10 10 10 10 10 10
18 17 18 17 17 16 15 14 13 13 12 11 11 10 10 10 10 10 11 11 11 11 11 11 11 11 11 11 11 11 11 11 11 11 11 11 11 11 11 11 11 11 11
18 17 17 17 16 15 15 14 13 12 12 11 11 10 10 10 10 10 10 11 11 11 11 11 11 11 11 11 11 11 11 11 11 11 11 11 11 11 11 11 11 12 12
17 16 16 17 16 15 14 13 12 12 11 11 10 10 10 10 10 10 10 10 10 10 11 11 11 11 11 11 11 11 11 11 11 11 11 11 11 11 11 12 12 12 12
17 16 15 16 15 15 14 13 12 12 11 11 10 10 10 10 10 9 10 10 10 10 10 11 11 11 11 11 11 11 11 11 11 11 11 11 11 11 11 11 12 12 12
17 16 15 14 14 14 13 12 12 11 11 11 10 10 10 10 9 9 9 9 9 10 10 10 10 10 10 11 11 11 10 11 11 11 11 11 11 11 11 11 11 11 11
17 16 15 14 14 13 12 12 11 11 11 10 10 10 9 9 9 9 9 9 9 9 10 10 10 10 10 10 10 10 10 10 10 10 10 11 11 11 11 11 11 11 11
17 16 15 14 13 13 12 12 11 11 10 10 10 9 9 9 9 9 8 8 9 9 9 9 9 9 9 9 9 9 9 10 10 10 10 11 11 11 11 11 11 11 11
16 16 15 15 14 13 12 12 11 11 10 10 10 10 9 9 9 9 8 8 8 8 8 8 8 8 8 8 8 8 9 9 9 10 10 10 11 11 11 11 11 11 11
16 15 15 15 14 13 13 12 11 11 10 10 10 9 9 9 9 9 8 8 8 8 8 7 7 7 7 7 7 8 8 8 9 9 9 10 10 11 11 11 11 11 11
16 15 15 14 14 13 13 12 11 11 10 10 10 9 9 9 9 8 8 8 8 7 7 7 7 7 7 7 7 7 7 8 8 8 9 9 10 10 11 11 11 11 10
16 15 14 14 14 13 12 12 11 11 10 10 9 9 9 9 8 8 8 8 8 7 7 7 7 7 7 7 7 7 7 7 7 8 8 9 9 10 10 10 10 10 10
15 15 15 14 14 13 12 12 11 10 10 10 9 9 9 8 8 8 8 8 7 7 7 7 7 7 7 7 6 6 7 7 7 7 8 8 9 9 9 9 9 9 10
15 15 15 14 14 13 12 11 11 10 10 10 9 9 9 8 8 8 8 8 8 7 7 7 7 7 6 6 6 6 6 7 7 8 8 8 8 8 8 8 9 9 9
15 14 14 14 14 13 12 12 11 11 10 10 10 9 9 9 8 8 8 8 8 7 7 7 7 6 6 6 5 5 6 7 8 8 8 8 8 8 8 8 8 8 8
14 14 14 14 13 13 12 12 11 11 10 10 9 9 9 9 9 8 8 8 8 7 7 7 7 6 6 6 5 4 4 5 6 6 7 7 7 7 7 7 7 6 7
14 14 14 13 13 13 12 12 11 10 10 9 9 9 9 9 9 8 8 8 8 7 7 7 6 6 6 5 5 4 4 4 4 5 6 6 6 6 6 6 6 6 6
13 13 13 13 13 12 12 12 11 10 10 9 9 9 8 8 8 8 8 7 7 7 7 6 6 6 5 5 5 5 4 3 3 3 4 4 5 5 5 5 5 5 5
13 13 13 13 12 12 12 11 11 10 10 9 9 8 8 8 7 7 7 7 7 7 6 6 6 6 5 5 5 5 4 4 3 2 2 3 4 4 4 4 4 4 4
13 12 12 12 12 12 11 11 10 10 9 9 8 8 8 7 7 7 7 6 6 6 6 6 6 5 5 5 5 4 4 3 4 3 2 2 2 3 3 3 3 4 4
Wind_Speed
10 20 22 20 18 16 14 13 12 11 11 11 11 11 11 11 11 12 12 12 12 13 13 13 14 14 15 15 16 16 16 16 17 18 18 18 18 18 18 17 17 16 17
13 22 23 21 19 17 15 14 12 11 11 10 10 10 10 10 11 11 11 12 12 12 12 13 13 14 14 14 14 14 14 14 14 15 17 17 17 17 17 17 17 16 17
15 22 23 22 20 18 16 14 13 12 11 10 10 9 10 10 10 10 10 10 11 11 11 12 12 13 13 13 13 13 12 12 12 13 14 15 14 15 16 16 16 16 16
17 22 22 22 21 18 17 15 14 12 11 10 10 9 9 8 9 9 9 9 10 10 10 11 11 11 11 12 12 11 11 10 11 14 14 14 13 13 14 14 14 14 14
15 22 22 24 21 19 18 16 15 13 12 10 10 9 8 8 8 8 8 8 8 9 9 9 10 10 10 10 10 10 9 9 10 12 13 13 12 11 12 12 12 13 13
13 21 23 24 22 20 18 17 15 14 12 11 10 8 8 8 7 7 7 7 7 7 7 8 8 9 9 9 9 9 8 9 10 12 13 14 11 9 10 10 10 10 11
12 19 24 24 22 20 19 17 16 14 13 11 10 9 8 7 7 7 6 5 5 5 5 6 6 7 7 7 7 7 7 9 8 8 10 12 9 7 8 8 8 8 8
11 16 23 24 22 21 19 17 16 15 13 12 11 9 8 8 7 6 6 5 4 3 3 3 4 4 5 5 5 5 6 7 7 6 7 9 7 6 6 6 6 6 6
11 13 20 20 20 20 19 18 17 15 14 13 11 10 9 8 7 7 6 5 4 3 2 1 1 2 2 2 3 3 4 6 7 5 3 5 4 4 4 3 4 4 4
8 9 16 19 19 18 18 18 17 16 15 13 12 11 10 9 8 8 8 7 6 5 4 3 2 2 2 2 3 3 4 7 8 5 2 1 1 3 4 4 3 3 3
6 8 11 15 17 18 18 18 17 17 15 14 13 12 11 10 10 11 11 10 8 7 6 6 5 5 5 6 6 6 6 9 10 5 4 4 5 6 7 7 7 6 6
9 8 7 11 15 17 16 17 16 15 15 15 13 14 13 12 11 11 12 12 10 9 8 9 8 8 9 11 11 10 9 12 12 8 9 9 9 10 10 11 10 10 10
11 10 8 7 13 14 12 14 13 13 14 15 15 15 15 13 10 8 11 12 11 10 10 12 12 11 13 13 9 11 13 12 9 9 9 11 12 13 14 14 14 14 14
9 10 9 6 7 11 12 11 12 10 11 11 13 13 12 10 8 7 7 11 13 13 13 12 11 13 14 14 11 12 13 12 12 13 13 14 15 16 17 17 17 17 17
7 9 9 8 7 7 8 8 9 9 10 12 13 13 12 8 6 7 7 8 10 10 11 11 10 10 10 11 12 12 12 13 14 15 16 17 18 19 20 21 21 21 21
6 8 8 8 7 7 5 5 6 8 10 11 12 13 12 10 8 7 7 7 8 9 9 9 9 8 8 8 8 11 12 14 16 18 19 20 21 22 23 24 24 24 24
6 7 8 8 7 7 6 5 6 7 8 8 9 12 13 11 9 8 6 5 8 10 10 9 9 8 5 6 6 9 11 14 16 17 19 19 21 23 25 26 26 27 27
7 7 7 6 6 6 5 5 4 5 6 6 7 8 11 12 11 8 5 5 9 10 8 5 4 4 5 5 6 6 8 10 13 17 18 20 20 21 24 27 28 28 29
8 9 8 7 5 6 5 4 3 2 2 3 4 5 6 8 10 8 6 7 9 7 5 4 4 4 5 6 6 7 6 6 8 13 14 18 21 22 22 25 28 29 30
9 10 9 7 6 6 4 3 3 2 1 1 2 3 4 6 7 7 6 6 6 4 4 4 5 5 5 6 8 9 8 8 8 10 12 17 19 21 22 23 24 25 29
9 9 8 7 6 5 4 3 3 2 1 1 1 2 4 5 6 6 4 4 4 4 5 5 5 6 5 4 5 7 8 10 13 13 11 11 13 19 20 21 21 21 22
9 8 8 8 7 6 4 3 3 2 2 1 1 1 3 4 5 5 5 3 4 4 6 6 5 5 5 4 3 4 5 5 6 10 9 10 11 11 11 17 18 19 20
8 8 8 8 8 7 5 4 3 2 1 1 0 0 2 3 4 4 5 4 4 4 5 6 6 7 6 5 5 5 5 5 5 5 7 7 7 6 6 10 15 18 20
7 7 8 8 8 6 5 4 3 2 1 1 1 1 1 2 2 3 3 4 4 4 5 6 6 6 6 6 5 6 8 7 6 6 4 5 7 8 8 8 9 15 19
7 7 7 8 7 6 5 5 4 3 2 2 2 2 2 1 1 1 2 3 3 4 5 6 6 6 6 7 6 6 7 7 9 10 12 7 7 8 10 11 9 11 17
6 6 7 8 7 6 5 5 5 4 3 3 3 3 2 2 1 1 2 3 4 4 5 6 6 7 7 8 7 7 7 7 7 9 12 11 11 8 9 8 8 8 13
Wind_Direction
139 153 163 159 156 154 151 145 136 128 118 109 101 94 89 85 82 78 73 71 67 64 62 61 60 59 58 58 59 60 61 62 62 60 60 61 62 62 61 61 61 55 57
143 154 163 161 159 158 155 150 143 136 126 116 109 102 97 91 86 80 76 72 68 65 63 62 60 60 59 58 59 61 63 63 62 60 59 54 58 61 61 61 63 61 59
139 152 164 163 162 161 158 154 148 142 136 126 118 111 104 96 90 84 80 75 70 66 64 63 61 60 59 59 59 60 62 60 55 56 61 50 52 59 60 59 59 60 59
143 152 165 165 164 164 161 158 154 150 145 137 128 121 114 106 98 92 86 79 73 69 66 64 63 62 62 60 59 59 59 54 46 56 57 51 49 58 59 59 59 59 60
144 154 165 166 167 167 165 163 159 158 154 146 138 132 126 118 109 99 91 84 78 72 69 65 63 62 62 61 59 56 51 38 35 52 57 56 49 57 59 58 58 58 59
146 155 162 167 169 170 168 167 165 164 161 155 150 145 140 130 120 111 102 93 86 78 71 67 63 62 59 59 56 50 36 20 33 48 53 51 41 51 57 56 56 56 55
151 154 160 169 172 172 172 171 170 168 167 163 159 157 153 144 135 127 121 111 101 88 78 70 64 61 57 54 52 44 26 10 31 43 52 55 40 48 52 50 50 52 52
147 150 159 171 173 175 175 175 174 173 174 172 169 169 166 160 154 151 146 137 128 114 96 79 66 58 52 47 43 35 16 360 357 22 56 62 40 35 43 42 38 39 42
143 146 154 171 175 178 179 179 179 179 180 180 179 179 178 175 175 174 170 167 164 159 146 122 78 48 36 25 17 7 351 335 329 343 18 64 32 8 13 15 9 8 13
139 147 153 169 175 179 181 183 183 183 185 187 187 186 186 188 193 192 188 190 190 193 200 211 232 258 277 289 297 300 305 302 291 277 264 175 273 309 316 312 306 307 308
149 157 156 166 174 177 181 186 186 186 189 191 192 189 188 196 204 202 199 197 201 210 221 231 239 249 257 258 254 253 267 273 272 258 250 235 251 267 276 282 280 276 276
175 177 171 167 170 174 181 179 184 188 191 193 194 190 193 209 215 200 192 192 204 218 231 240 244 250 253 249 240 233 243 255 257 251 239 236 248 259 264 268 271 270 268
174 174 178 170 166 168 172 170 181 188 187 195 203 195 195 207 209 185 169 183 202 218 229 239 236 236 239 240 220 213 233 250 257 263 255 243 250 257 261 263 264 266 266
157 164 171 168 159 164 165 168 174 180 182 189 203 205 195 194 192 192 186 187 199 209 217 228 216 228 234 235 229 227 239 245 245 249 252 249 252 256 260 261 262 262 262
149 157 166 165 161 158 158 166 175 180 181 189 195 206 204 186 182 195 208 214 214 214 212 218 224 237 242 240 237 236 241 247 249 248 246 248 252 255 259 261 261 260 260
146 153 158 163 162 155 155 162 176 184 184 188 189 198 206 201 195 199 212 220 226 230 234 230 232 242 247 246 243 243 244 246 249 250 250 249 251 254 257 259 260 260 259
135 136 142 157 158 157 165 174 178 188 186 184 186 195 202 209 212 210 215 222 230 236 240 242 248 257 259 259 256 257 257 254 251 250 251 249 248 250 255 258 259 260 259
113 116 119 128 145 151 153 165 176 188 190 183 189 197 204 211 218 222 221 226 236 240 239 234 234 250 259 260 258 254 254 255 253 252 251 250 248 247 250 256 258 260 260
99 106 108 115 129 131 132 138 152 153 148 163 185 200 210 216 223 227 229 235 242 243 240 235 236 236 253 263 267 266 261 259 260 260 254 250 247 246 245 252 258 260 262
88 99 105 109 113 115 117 123 110 89 74 140 182 212 227 231 235 236 239 245 251 251 251 246 247 248 249 258 273 275 270 266 263 261 259 256 252 249 247 248 251 255 261
88 97 104 109 110 108 105 113 120 140 157 155 182 228 244 242 245 245 247 254 257 255 253 251 253 262 267 270 284 289 275 259 256 256 253 251 249 248 246 246 247 247 253
96 99 103 104 102 97 100 102 104 107 105 105 144 212 248 250 246 239 235 236 242 253 262 258 253 261 266 252 253 298 304 301 268 257 251 245 245 243 242 246 248 247 246
93 98 101 99 96 95 98 94 83 72 55 77 265 238 252 252 253 246 243 244 246 242 251 253 246 247 257 252 219 224 263 275 312 294 291 284 268 254 248 249 250 250 248
102 100 101 101 99 99 99 96 104 104 100 126 129 186 247 225 231 248 253 257 256 253 256 255 248 243 245 256 250 231 235 239 271 293 274 282 296 287 277 266 257 252 250
112 110 111 106 103 100 97 96 86 68 48 41 28 23 349 314 206 247 261 269 267 259 260 261 263 255 244 245 245 245 252 253 247 263 279 269 262 258 261 261 258 256 251
122 119 119 113 110 104 98 94 87 72 40 28 16 9 344 329 318 297 276 275 273 267 265 263 260 259 254 253 251 245 244 246 249 254 270 276 275 266 260 262 264 261 261
Height
1543 1543 1544 1546 1547 1548 1549 1551 1552 1554 1555 1555 1556 1556 1557 1557 1557 1557 1557 1557 1557 1557 1557 1557 1556 1556 1556 1556 1556 1556 1557 1557 1557 1557 1557 1557 1557 1557 1556 1556 1555 1556 1556
1542 1543 1544 1546 1547 1548 1550 1551 1553 1554 1555 1556 1557 1557 1557 1558 1558 1558 1558 1558 1557 1557 1557 1557 1557 1557 1556 1556 1557 1557 1557 1558 1558 1558 1558 1558 1558 1558 1557 1557 1557 1557 1556
1542 1543 1544 1546 1547 1549 1550 1552 1553 1554 1555 1556 1557 1558 1558 1558 1558 1558 1558 1558 1558 1558 1558 1557 1557 1557 1557 1557 1557 1557 1558 1558 1559 1559 1558 1558 1558 1558 1558 1558 1557 1557 1557
1542 1542 1544 1546 1547 1549 1550 1552 1553 1554 1556 1556 1557 1558 1559 1559 1559 1559 1559 1559 1559 1558 1558 1558 1558 1557 1557 1557 1557 1558 1558 1559 1559 1559 1558 1558 1558 1559 1558 1558 1558 1557 1557
1541 1542 1544 1545 1547 1549 1550 1552 1553 1555 1556 1557 1558 1558 1559 1559 1560 1560 1560 1560 1559 1559 1559 1559 1559 1558 1558 1558 1558 1559 1559 1559 1559 1559 1559 1559 1559 1559 1558 1558 1558 1558 1557
1541 1542 1543 1545 1547 1548 1550 1552 1553 1555 1556 1557 1558 1559 1559 1560 1560 1560 1560 1560 1560 1560 1560 1560 1559 1559 1559 1559 1559 1559 1560 1560 1560 1560 1559 1559 1559 1559 1559 1558 1558 1558 1558
1540 1541 1542 1544 1546 1548 1549 1551 1553 1554 1556 1557 1558 1559 1560 1560 1561 1561 1561 1561 1561 1561 1561 1561 1560 1560 1560 1560 1560 1560 1560 1560 1560 1560 1560 1559 1559 1559 1559 1558 1558 1558 1558
1540 1540 1541 1543 1545 1547 1549 1551 1552 1554 1556 1557 1558 1559 1560 1560 1561 1561 1561 1561 1561 1561 1561 1561 1561 1561 1561 1560 1561 1561 1561 1561 1561 1560 1560 1560 1560 1559 1559 1559 1558 1558 1558
1539 1539 1539 1542 1543 1545 1547 1549 1551 1553 1555 1556 1558 1559 1560 1560 1561 1561 1561 1561 1561 1561 1562 1561 1561 1561 1561 1561 1561 1561 1561 1561 1561 1560 1560 1560 1560 1559 1559 1559 1558 1558 1558
1538 1538 1538 1540 1542 1544 1546 1548 1550 1552 1554 1556 1557 1558 1559 1560 1560 1561 1561 1561 1561 1561 1561 1561 1561 1561 1561 1561 1561 1561 1561 1561 1560 1560 1560 1560 1559 1559 1559 1558 1558 1557 1557
1535 1536 1537 1538 1540 1542 1544 1547 1549 1551 1553 1554 1556 1557 1558 1559 1559 1560 1560 1561 1561 1561 1561 1561 1561 1561 1561 1561 1560 1560 1560 1560 1559 1559 1559 1559 1559 1558 1558 1557 1557 1556 1556
1533 1534 1536 1537 1538 1540 1543 1545 1547 1549 1551 1553 1554 1555 1556 1557 1559 1559 1559 1560 1560 1560 1560 1560 1560 1560 1560 1559 1559 1559 1559 1559 1558 1558 1558 1557 1557 1557 1556 1556 1555 1555 1554
1530 1531 1534 1536 1537 1539 1541 1543 1545 1547 1549 1551 1552 1554 1555 1556 1557 1558 1558 1558 1559 1559 1558 1558 1558 1558 1558 1557 1557 1557 1557 1556 1556 1556 1556 1555 1555 1555 1554 1554 1553 1553 1552
1527 1529 1531 1534 1536 1538 1540 1542 1543 1545 1547 1549 1550 1552 1554 1555 1555 1556 1557 1557 1556 1556 1556 1556 1556 1556 1555 1555 1555 1554 1554 1554 1554 1553 1553 1553 1552 1552 1551 1551 1550 1550 1550
1525 1526 1528 1531 1534 1536 1538 1540 1542 1544 1545 1547 1548 1550 1552 1553 1553 1554 1554 1555 1555 1555 1554 1554 1554 1554 1554 1553 1552 1552 1551 1551 1550 1549 1549 1549 1548 1548 1548 1547 1547 1546 1546
1522 1524 1526 1528 1531 1534 1536 1538 1540 1542 1544 1545 1546 1548 1549 1550 1551 1551 1552 1552 1552 1553 1553 1552 1552 1551 1551 1550 1549 1548 1547 1546 1545 1544 1544 1543 1543 1542 1543 1542 1542 1541 1541
1520 1522 1523 1526 1529 1531 1534 1536 1538 1540 1542 1543 1544 1545 1546 1547 1548 1549 1549 1549 1549 1550 1549 1549 1548 1548 1547 1546 1545 1544 1542 1541 1540 1539 1538 1537 1536 1536 1536 1536 1536 1535 1535
1518 1520 1521 1524 1527 1529 1532 1534 1536 1538 1540 1541 1542 1543 1543 1544 1545 1545 1546 1546 1546 1546 1546 1545 1544 1543 1542 1541 1540 1538 1537 1535 1534 1533 1531 1530 1529 1529 1528 1528 1527 1527 1527
1517 1518 1520 1523 1525 1528 1530 1532 1534 1536 1537 1538 1539 1540 1540 1541 1541 1542 1542 1542 1542 1542 1542 1541 1540 1539 1538 1536 1535 1533 1531 1529 1528 1526 1525 1523 1522 1521 1520 1520 1519 1519 1518
1517 1518 1520 1522 1524 1526 1528 1530 1532 1534 1535 1535 1536 1537 1537 1537 1538 1538 1538 1538 1538 1538 1537 1536 1536 1535 1533 1531 1529 1526 1524 1522 1521 1519 1517 1516 1514 1513 1512 1512 1511 1510 1510
1518 1519 1520 1522 1524 1526 1527 1529 1530 1532 1532 1533 1533 1534 1534 1534 1534 1534 1534 1534 1533 1533 1532 1532 1531 1530 1528 1527 1524 1520 1516 1514 1512 1511 1509 1508 1507 1506 1506 1505 1504 1503 1502
1518 1520 1521 1523 1524 1526 1527 1528 1530 1530 1531 1531 1532 1531 1531 1531 1531 1530 1530 1529 1529 1528 1528 1527 1526 1525 1523 1523 1521 1517 1510 1506 1504 1504 1503 1502 1501 1500 1499 1498 1497 1496 1494
1519 1521 1522 1523 1525 1526 1527 1528 1529 1529 1530 1530 1530 1529 1529 1529 1528 1527 1527 1526 1525 1525 1524 1523 1522 1520 1519 1518 1517 1516 1511 1502 1499 1496 1497 1497 1496 1495 1494 1492 1490 1489 1487
1520 1521 1523 1524 1525 1526 1527 1528 1528 1529 1529 1529 1528 1528 1527 1526 1526 1525 1524 1523 1522 1521 1520 1519 1518 1516 1515 1513 1512 1510 1508 1504 1499 1489 1487 1488 1489 1488 1487 1485 1483 1481 1480
1520 1521 1523 1524 1525 1526 1527 1527 1527 1528 1528 1527 1527 1526 1525 1524 1523 1522 1521 1520 1519 1517 1516 1515 1513 1512 1510 1508 1506 1504 1502 1499 1496 1490 1480 1478 1478 1478 1477 1476 1474 1473 1472
1520 1521 1522 1524 1524 1525 1526 1526 1526 1526 1526 1525 1524 1523 1523 1522 1520 1519 1518 1517 1515 1514 1512 1510 1509 1507 1505 1502 1500 1498 1496 1493 1489 1485 1477 1471 1468 1467 1468 1467 1466 1465 1463